Location: Ozark
(37.5425°N, 88.7628°W)
Time: 11:33:25
(UTC+00:00)

CENTAUR R/B - Pass Details

Date: 26 January 2020
Orbit: 766 x 1422 km, 63.5° (Epoch: 19 February)

Event Time Altitude Azimuth Distance (km) Brightness Sun altitude
Exits shadow 12:21:43 - 314° (NW) 3,760 5.0 -8.6°
Reaches altitude 10° 12:23:00 10° 310° (NW) 3,390 4.7 -8.4°
Maximum altitude 12:30:19 34° 250° (WSW) 2,146 3.9 -7.0°
Drops below altitude 10° 12:37:55 10° 189° (S) 3,505 5.5 -5.6°
Sets 12:41:09 0° 181° (S) 4,456 6.2 -4.9°
